Location: Prairie Dale
(45.6972°N, 104.5033°W)
Time: 06:00:04
(UTC+00:00)

AO-109 - Pass Details

Date: 04 July 2022
Orbit: 469 x 506 km, 60.7° (Epoch: 12 August)

Event Time Altitude Azimuth Distance (km) Brightness Sun altitude
Exits shadow 09:14:42 15° 157° (SSE) 1,355 ? -15.2°
Maximum altitude 09:16:26 21° 121° (ESE) 1,138 ? -15.0°
Drops below altitude 10° 09:19:22 10° 70° (ENE) 1,698 ? -14.7°
Sets 09:21:48 0° 55° (NE) 2,559 ? -14.5°
